Location: La Estación
(39.9833°N, 3.9500°W)
Time: 15:41:37
(UTC+00:00)

COBE Rocket - Pass Details

Date: 14 June 2025
Orbit: 674 x 774 km, 97.1° (Epoch: 19 July)

Event Time Altitude Azimuth Distance (km) Brightness Sun altitude
Rises 22:06:31 0° 14° (NNE) 3,226 7.9 -19.9°
Reaches altitude 10° 22:08:53 10° 17° (NNE) 2,284 7.0 -20.1°
Maximum altitude 22:13:53 65° 100° (E) 809 3.9 -20.6°
Enters shadow 22:15:12 46° 161° (SSE) 980 4.1 -20.7°
